Flag for Australia Weather past 2 weeks in Launceston, Tasmania, Australia

Now
52 °F

Mostly cloudy.


Feels Like: 49 °F
Forecast: 44 / 68 °F
Wind: 9 mph from North

Location: Launceston Airport

Current Time: Dec 20, 2014 at 2:52:46 AM

Latest Report: Dec 20, 2014 at 2:00 AM


Visibility: N/A

Pressure: 29.95 "Hg

Humidity: 67%

Dew point: 41 °F

Location of LauncestonLocation

Historic Weather in Launceston — Graph

°F

Launceston temperature yesterday

Maximum temperature yesterday: 68 °F (at 2:00 PM)
Minimum temperature yesterday: 39 °F (at 6:00 AM)
Average temperature yesterday: 55 °F

Past Weeks' High & Low Weather Summary

 TemperatureHumidityPressure
High79 °F (Dec 14, 1:00 PM)100% (Dec 5, 8:30 PM)30.24 "Hg (Dec 5, 8:30 PM)
Low39 °F (Dec 19, 6:00 AM)30% (Dec 19, 2:30 PM)29.15 "Hg (Dec 16, 4:05 PM)
Average59 °F71%29.83 "Hg
* Reported Dec 5 1:00 AM — Dec 20 1:30 AM, Launceston, Weather by CustomWeather, © 2014

Note: Actual official high and low records may vary slightly from our data, if they occured in-between our weather recording intervals... More about our weather records

Advertising

Launceston weather history for previous 24 hours

 ConditionsComfort  
Time TempWeatherWind HumidityBarometerVisibility
1:30 AM
Dec 20
52 °FPassing clouds.9 mph67%29.95 "HgN/A
1:00 AM50 °FPassing clouds.9 mph71%29.95 "HgN/A
12:30 AM52 °FMostly cloudy.10 mph67%29.95 "HgN/A
12:00 AM52 °FOvercast.9 mph67%29.95 "HgN/A
11:30 PM
Dec 19
50 °FPassing clouds.9 mph67%29.98 "HgN/A
11:00 PM50 °FPassing clouds.9 mph67%29.95 "HgN/A
10:00 PM55 °FOvercast.13 mph55%29.95 "HgN/A
9:30 PM57 °FOvercast.10 mph48%29.95 "HgN/A
9:00 PM57 °FOvercast.6 mph48%29.95 "HgN/A
8:00 PM59 °FBroken clouds.15 mph42%29.92 "HgN/A
7:30 PM59 °FOvercast.14 mph45%29.92 "HgN/A
7:00 PM61 °FScattered clouds.16 mph39%29.92 "HgN/A
6:00 PM63 °FBroken clouds.17 mph37%29.89 "HgN/A
5:00 PM64 °FScattered clouds.13 mph34%29.89 "HgN/A
4:30 PM66 °FBroken clouds.13 mph32%29.89 "HgN/A
4:00 PM68 °FPartly sunny.10 mph30%29.89 "HgN/A
3:30 PM66 °FBroken clouds.9 mph32%29.89 "HgN/A
3:00 PM64 °FScattered clouds.7 mph34%29.89 "HgN/A
2:30 PM68 °FScattered clouds.12 mph30%29.89 "HgN/A
2:00 PM68 °FScattered clouds.8 mph33%29.89 "HgN/A
1:30 PM66 °FBroken clouds.8 mph35%29.89 "HgN/A
1:00 PM63 °FMore clouds than sun.8 mph39%29.89 "HgN/A
12:30 PM61 °FPartly sunny.7 mph42%29.89 "HgN/A
12:00 PM61 °FBroken clouds.7 mph42%29.89 "HgN/A
11:30 AM61 °FScattered clouds.3 mph39%29.89 "HgN/A
11:00 AM57 °FScattered clouds.7 mph44%29.89 "HgN/A
10:30 AM59 °FScattered clouds.8 mph42%29.89 "HgN/A
10:00 AM57 °FScattered clouds.6 mph48%29.89 "HgN/A
9:30 AM55 °FSunny.5 mph51%29.89 "HgN/A
9:00 AM55 °FSunny.6 mph59%29.89 "HgN/A
8:00 AM52 °FSunny.No wind72%29.89 "HgN/A
7:00 AM46 °FSunny.3 mph82%29.86 "HgN/A
6:30 AM43 °FSunny.3 mph87%29.86 "HgN/A
6:00 AM39 °FSunny.5 mph87%29.83 "HgN/A
5:00 AM41 °FClear.5 mph87%29.80 "HgN/A
4:30 AM43 °FClear.2 mph87%29.80 "HgN/A
4:00 AM43 °FClear.No wind87%29.80 "HgN/A
3:30 AM43 °FClear.2 mph87%29.77 "HgN/A
3:00 AM43 °FClear.6 mph81%29.77 "HgN/A
2:00 AM43 °FClear.6 mph81%29.77 "HgN/A
Weather by CustomWeather, © 2014

See weather overviewHow to use our weather pages